User: anonymous   Login
Location: Campo Alegre
(10.1673°N, 67.4431°W)
Time: 04:23:59
(UTC+00:00)
Language:

Cosmos 1939 Rocket - Orbit

View from above orbital plane
View from above orbital plane
View from above satellite
View from above satellite

Ground track
Ground track

The orbit data is extracted from the following two-line orbital elements,

1 19046U 88032B   24174.55783465  .00004056  00000-0  25018-3 0  9996
2 19046  97.4488 156.1872 0030311 238.4021 121.4250 15.10104686957424
Epoch (UTC): 22 June 2024 13:23:16
Eccentricity: 0.0030311
inclination: 97.4488°
perigee height: 515 km
apogee height: 557 km
right ascension of ascending node: 156.1872°
argument of perigee: 238.4021°
revolutions per day: 15.10104686
mean anomaly at epoch: 121.4250°
orbit number at epoch: 95742

The dashed part of the orbit path shows where the satellite is in the earth's shadow,  

DLR